Year,Month,Day,Hour,Minute,Value (Times are PST for temperature in C)
2010,08,13,00,00,16.10
2010,08,13,00,01,16.10
2010,08,13,00,02,16.10
2010,08,13,00,03,16.10
2010,08,13,00,04,16.10
2010,08,13,00,05,16.10
2010,08,13,00,06,16.00
2010,08,13,00,07,16.00
2010,08,13,00,08,16.00
2010,08,13,00,09,16.10
2010,08,13,00,10,16.00
2010,08,13,00,11,16.00
2010,08,13,00,12,16.00
2010,08,13,00,13,16.00
2010,08,13,00,14,16.00
2010,08,13,00,15,16.00
2010,08,13,00,16,15.90
2010,08,13,00,17,15.90
2010,08,13,00,18,15.90
2010,08,13,00,19,15.90
2010,08,13,00,20,15.90
2010,08,13,00,21,15.90
2010,08,13,00,22,15.90
2010,08,13,00,23,15.90
2010,08,13,00,24,15.90
2010,08,13,00,25,15.90
2010,08,13,00,26,15.90
2010,08,13,00,27,15.90
2010,08,13,00,28,15.90
2010,08,13,00,29,15.90
2010,08,13,00,30,15.90
2010,08,13,00,31,15.90
2010,08,13,00,32,15.90
2010,08,13,00,33,15.90
2010,08,13,00,34,15.80
2010,08,13,00,35,15.80
2010,08,13,00,36,15.80
2010,08,13,00,37,15.80
2010,08,13,00,38,15.70
2010,08,13,00,39,15.70
2010,08,13,00,40,15.70
2010,08,13,00,41,15.70
2010,08,13,00,42,15.70
2010,08,13,00,43,15.70
2010,08,13,00,44,15.70
2010,08,13,00,45,15.70
2010,08,13,00,46,15.60
2010,08,13,00,47,15.60
2010,08,13,00,48,15.60
2010,08,13,00,49,15.60
2010,08,13,00,50,15.60
2010,08,13,00,51,15.50
2010,08,13,00,52,15.50
2010,08,13,00,53,15.50
2010,08,13,00,54,15.50
2010,08,13,00,55,15.50
2010,08,13,00,56,15.50
2010,08,13,00,57,15.40
2010,08,13,00,58,15.40
2010,08,13,00,59,15.40
2010,08,13,01,00,15.40
2010,08,13,01,01,15.40
2010,08,13,01,02,15.40
2010,08,13,01,03,15.40
2010,08,13,01,04,15.40
2010,08,13,01,05,15.40
2010,08,13,01,06,15.40
2010,08,13,01,07,15.40
2010,08,13,01,08,15.40
2010,08,13,01,09,15.40
2010,08,13,01,10,15.40
2010,08,13,01,11,15.40
2010,08,13,01,12,15.40
2010,08,13,01,13,15.30
2010,08,13,01,14,15.30
2010,08,13,01,15,15.30
2010,08,13,01,16,15.30
2010,08,13,01,17,15.30
2010,08,13,01,18,15.30
2010,08,13,01,19,15.20
2010,08,13,01,20,15.20
2010,08,13,01,21,15.20
2010,08,13,01,22,15.20
2010,08,13,01,23,15.10
2010,08,13,01,24,15.10
2010,08,13,01,25,15.10
2010,08,13,01,26,15.10
2010,08,13,01,27,15.10
2010,08,13,01,28,15.10
2010,08,13,01,29,15.10
2010,08,13,01,30,15.00
2010,08,13,01,31,15.00
2010,08,13,01,32,15.00
2010,08,13,01,33,15.00
2010,08,13,01,34,15.00
2010,08,13,01,35,15.00
2010,08,13,01,36,15.00
2010,08,13,01,37,15.00
2010,08,13,01,38,15.00
2010,08,13,01,39,15.00
2010,08,13,01,40,15.00
2010,08,13,01,41,15.00
2010,08,13,01,42,15.00
2010,08,13,01,43,15.00
2010,08,13,01,44,15.00
2010,08,13,01,45,15.00
2010,08,13,01,46,15.00
2010,08,13,01,47,15.00
2010,08,13,01,48,15.00
2010,08,13,01,49,15.00
2010,08,13,01,50,15.00
2010,08,13,01,51,15.00
2010,08,13,01,52,15.00
2010,08,13,01,53,15.00
2010,08,13,01,54,15.00
2010,08,13,01,55,15.00
2010,08,13,01,56,15.00
2010,08,13,01,57,15.00
2010,08,13,01,58,15.00
2010,08,13,01,59,15.00
2010,08,13,02,00,15.00
2010,08,13,02,01,15.00
2010,08,13,02,02,15.00
2010,08,13,02,03,15.00
2010,08,13,02,04,15.00
2010,08,13,02,05,15.00
2010,08,13,02,06,14.90
2010,08,13,02,07,14.90
2010,08,13,02,08,14.80
2010,08,13,02,09,14.80
2010,08,13,02,10,14.80
2010,08,13,02,11,14.80
2010,08,13,02,12,14.80
2010,08,13,02,13,14.80
2010,08,13,02,14,14.80
2010,08,13,02,15,14.80
2010,08,13,02,16,14.80
2010,08,13,02,17,14.70
2010,08,13,02,18,14.70
2010,08,13,02,19,14.70
2010,08,13,02,20,14.70
2010,08,13,02,21,14.70
2010,08,13,02,22,14.70
2010,08,13,02,23,14.70
2010,08,13,02,24,14.70
2010,08,13,02,25,14.70
2010,08,13,02,26,14.60
2010,08,13,02,27,14.60
2010,08,13,02,28,14.60
2010,08,13,02,29,14.60
2010,08,13,02,30,14.60
2010,08,13,02,31,14.60
2010,08,13,02,32,14.70
2010,08,13,02,33,14.60
2010,08,13,02,34,14.60
2010,08,13,02,35,14.60
2010,08,13,02,36,14.60
2010,08,13,02,37,14.60
2010,08,13,02,38,14.60
2010,08,13,02,39,14.60
2010,08,13,02,40,14.50
2010,08,13,02,41,14.50
2010,08,13,02,42,14.50
2010,08,13,02,43,14.50
2010,08,13,02,44,14.50
2010,08,13,02,45,14.50
2010,08,13,02,46,14.40
2010,08,13,02,47,14.40
2010,08,13,02,48,14.40
2010,08,13,02,49,14.40
2010,08,13,02,50,14.40
2010,08,13,02,51,14.40
2010,08,13,02,52,14.40
2010,08,13,02,53,14.40
2010,08,13,02,54,14.40
2010,08,13,02,55,14.40
2010,08,13,02,56,14.40
2010,08,13,02,57,14.40
2010,08,13,02,58,14.40
2010,08,13,02,59,14.40
2010,08,13,03,00,14.40
2010,08,13,03,01,14.30
2010,08,13,03,02,14.30
2010,08,13,03,03,14.30
2010,08,13,03,04,14.40
2010,08,13,03,05,14.40
2010,08,13,03,06,14.40
2010,08,13,03,07,14.30
2010,08,13,03,08,14.30
2010,08,13,03,09,14.30
2010,08,13,03,10,14.30
2010,08,13,03,11,14.30
2010,08,13,03,12,14.30
2010,08,13,03,13,14.20
2010,08,13,03,14,14.20
2010,08,13,03,15,14.20
2010,08,13,03,16,14.20
2010,08,13,03,17,14.20
2010,08,13,03,18,14.20
2010,08,13,03,19,14.20
2010,08,13,03,20,14.20
2010,08,13,03,21,14.20
2010,08,13,03,22,14.20
2010,08,13,03,23,14.20
2010,08,13,03,24,14.20
2010,08,13,03,25,14.20
2010,08,13,03,26,14.20
2010,08,13,03,27,14.20
2010,08,13,03,28,14.20
2010,08,13,03,29,14.10
2010,08,13,03,30,14.10
2010,08,13,03,31,14.10
2010,08,13,03,32,14.10
2010,08,13,03,33,14.10
2010,08,13,03,34,14.10
2010,08,13,03,35,14.10
2010,08,13,03,36,14.10
2010,08,13,03,37,14.00
2010,08,13,03,38,14.00
2010,08,13,03,39,14.00
2010,08,13,03,40,14.00
2010,08,13,03,41,14.00
2010,08,13,03,42,14.00
2010,08,13,03,43,14.00
2010,08,13,03,44,13.90
2010,08,13,03,45,13.90
2010,08,13,03,46,13.90
2010,08,13,03,47,13.90
2010,08,13,03,48,13.90
2010,08,13,03,49,13.90
2010,08,13,03,50,13.90
2010,08,13,03,51,13.90
2010,08,13,03,52,13.90
2010,08,13,03,53,13.80
2010,08,13,03,54,13.80
2010,08,13,03,55,13.80
2010,08,13,03,56,13.80
2010,08,13,03,57,13.80
2010,08,13,03,58,13.80
2010,08,13,03,59,13.80
2010,08,13,04,00,13.80
2010,08,13,04,01,13.80
2010,08,13,04,02,13.80
2010,08,13,04,03,13.80
2010,08,13,04,04,13.70
2010,08,13,04,05,13.70
2010,08,13,04,06,13.70
2010,08,13,04,07,13.70
2010,08,13,04,08,13.70
2010,08,13,04,09,13.70
2010,08,13,04,10,13.70
2010,08,13,04,11,13.70
2010,08,13,04,12,13.70
2010,08,13,04,13,13.70
2010,08,13,04,14,13.70
2010,08,13,04,15,13.60
2010,08,13,04,16,13.60
2010,08,13,04,17,13.60
2010,08,13,04,18,13.60
2010,08,13,04,19,13.60
2010,08,13,04,20,13.50
2010,08,13,04,21,13.50
2010,08,13,04,22,13.50
2010,08,13,04,23,13.50
2010,08,13,04,24,13.40
2010,08,13,04,25,13.40
2010,08,13,04,26,13.40
2010,08,13,04,27,13.40
2010,08,13,04,28,13.40
2010,08,13,04,29,13.30
2010,08,13,04,30,13.30
2010,08,13,04,31,13.30
2010,08,13,04,32,13.30
2010,08,13,04,33,13.30
2010,08,13,04,34,13.30
2010,08,13,04,35,13.30
2010,08,13,04,36,13.30
2010,08,13,04,37,13.20
2010,08,13,04,38,13.20
2010,08,13,04,39,13.20
2010,08,13,04,40,13.20
2010,08,13,04,41,13.20
2010,08,13,04,42,13.20
2010,08,13,04,43,13.20
2010,08,13,04,44,13.20
2010,08,13,04,45,13.20
2010,08,13,04,46,13.20
2010,08,13,04,47,13.20
2010,08,13,04,48,13.20
2010,08,13,04,49,13.20
2010,08,13,04,50,13.10
2010,08,13,04,51,13.10
2010,08,13,04,52,13.10
2010,08,13,04,53,13.10
2010,08,13,04,54,13.10
2010,08,13,04,55,13.10
2010,08,13,04,56,13.10
2010,08,13,04,57,13.10
2010,08,13,04,58,13.10
2010,08,13,04,59,13.10
2010,08,13,05,00,13.10
2010,08,13,05,01,13.10
2010,08,13,05,02,13.10
2010,08,13,05,03,13.10
2010,08,13,05,04,13.10
2010,08,13,05,05,13.10
2010,08,13,05,06,13.10
2010,08,13,05,07,13.10
2010,08,13,05,08,13.10
2010,08,13,05,09,13.10
2010,08,13,05,10,13.10
2010,08,13,05,11,13.10
2010,08,13,05,12,13.10
2010,08,13,05,13,13.10
2010,08,13,05,14,13.10
2010,08,13,05,15,13.10
2010,08,13,05,16,13.10
2010,08,13,05,17,13.20
2010,08,13,05,18,13.20
2010,08,13,05,19,13.20
2010,08,13,05,20,13.20
2010,08,13,05,21,13.20
2010,08,13,05,22,13.20
2010,08,13,05,23,13.20
2010,08,13,05,24,13.20
2010,08,13,05,25,13.20
2010,08,13,05,26,13.10
2010,08,13,05,27,13.10
2010,08,13,05,28,13.10
2010,08,13,05,29,13.10
2010,08,13,05,30,13.10
2010,08,13,05,31,13.10
2010,08,13,05,32,13.10
2010,08,13,05,33,13.10
2010,08,13,05,34,13.10
2010,08,13,05,35,13.10
2010,08,13,05,36,13.10
2010,08,13,05,37,13.10
2010,08,13,05,38,13.10
2010,08,13,05,39,13.10
2010,08,13,05,40,13.10
2010,08,13,05,41,13.00
2010,08,13,05,42,13.00
2010,08,13,05,43,13.00
2010,08,13,05,44,13.00
2010,08,13,05,45,13.10
2010,08,13,05,46,13.10
2010,08,13,05,47,13.10
2010,08,13,05,48,13.10
2010,08,13,05,49,13.10
2010,08,13,05,50,13.10
2010,08,13,05,51,13.10
2010,08,13,05,52,13.00
2010,08,13,05,53,13.00
2010,08,13,05,54,13.00
2010,08,13,05,55,13.00
2010,08,13,05,56,13.00
2010,08,13,05,57,13.00
2010,08,13,05,58,12.90
2010,08,13,05,59,12.90
2010,08,13,06,00,12.90
2010,08,13,06,01,12.90
2010,08,13,06,02,12.90
2010,08,13,06,03,12.90
2010,08,13,06,04,12.90
2010,08,13,06,05,12.80
2010,08,13,06,06,12.80
2010,08,13,06,07,12.80
2010,08,13,06,08,12.80
2010,08,13,06,09,12.80
2010,08,13,06,10,12.80
2010,08,13,06,11,12.80
2010,08,13,06,12,12.80
2010,08,13,06,13,12.80
2010,08,13,06,14,12.80
2010,08,13,06,15,12.80
2010,08,13,06,16,12.70
2010,08,13,06,17,12.70
2010,08,13,06,18,12.70
2010,08,13,06,19,12.70
2010,08,13,06,20,12.80
2010,08,13,06,21,12.80
2010,08,13,06,22,12.90
2010,08,13,06,23,12.90
2010,08,13,06,24,12.90
2010,08,13,06,25,12.80
2010,08,13,06,26,12.80
2010,08,13,06,27,12.80
2010,08,13,06,28,12.80
2010,08,13,06,29,12.80
2010,08,13,06,30,12.80
2010,08,13,06,31,12.90
2010,08,13,06,32,12.90
2010,08,13,06,33,12.90
2010,08,13,06,34,12.90
2010,08,13,06,35,12.90
2010,08,13,06,36,12.90
2010,08,13,06,37,12.90
2010,08,13,06,38,12.90
2010,08,13,06,39,12.90
2010,08,13,06,40,12.90
2010,08,13,06,41,12.90
2010,08,13,06,42,12.90
2010,08,13,06,43,12.90
2010,08,13,06,44,12.90
2010,08,13,06,45,12.90
2010,08,13,06,46,12.90
2010,08,13,06,47,12.90
2010,08,13,06,48,13.00
2010,08,13,06,49,13.00
2010,08,13,06,50,13.00
2010,08,13,06,51,13.10
2010,08,13,06,52,13.10
2010,08,13,06,53,13.10
2010,08,13,06,54,13.10
2010,08,13,06,55,13.10
2010,08,13,06,56,13.10
2010,08,13,06,57,13.10
2010,08,13,06,58,13.10
2010,08,13,06,59,13.10
2010,08,13,07,00,13.10
2010,08,13,07,01,13.10
2010,08,13,07,02,13.10
2010,08,13,07,03,13.20
2010,08,13,07,04,13.20
2010,08,13,07,05,13.20
2010,08,13,07,06,13.20
2010,08,13,07,07,13.20
2010,08,13,07,08,13.20
2010,08,13,07,09,13.20
2010,08,13,07,10,13.20
2010,08,13,07,11,13.30
2010,08,13,07,12,13.30
2010,08,13,07,13,13.30
2010,08,13,07,14,13.30
2010,08,13,07,15,13.30
2010,08,13,07,16,13.30
2010,08,13,07,17,13.40
2010,08,13,07,18,13.40
2010,08,13,07,19,13.40
2010,08,13,07,20,13.40
2010,08,13,07,21,13.40
2010,08,13,07,22,13.50
2010,08,13,07,23,13.50
2010,08,13,07,24,13.50
2010,08,13,07,25,13.60
2010,08,13,07,26,13.60
2010,08,13,07,27,13.60
2010,08,13,07,28,13.60
2010,08,13,07,29,13.60
2010,08,13,07,30,13.70
2010,08,13,07,31,13.70
2010,08,13,07,32,13.70
2010,08,13,07,33,13.70
2010,08,13,07,34,13.70
2010,08,13,07,35,13.70
2010,08,13,07,36,13.80
2010,08,13,07,37,13.80
2010,08,13,07,38,13.80
2010,08,13,07,39,13.90
2010,08,13,07,40,13.90
2010,08,13,07,41,13.90
2010,08,13,07,42,14.00
2010,08,13,07,43,14.00
2010,08,13,07,44,14.10
2010,08,13,07,45,14.10
2010,08,13,07,46,14.10
2010,08,13,07,47,14.20
2010,08,13,07,48,14.20
2010,08,13,07,49,14.20
2010,08,13,07,50,14.20
2010,08,13,07,51,14.30
2010,08,13,07,52,14.30
2010,08,13,07,53,14.30
2010,08,13,07,54,14.40
2010,08,13,07,55,14.40
2010,08,13,07,56,14.50
2010,08,13,07,57,14.50
2010,08,13,07,58,14.50
2010,08,13,07,59,14.60
2010,08,13,08,00,14.60
2010,08,13,08,01,14.70
2010,08,13,08,02,14.70
2010,08,13,08,03,14.70
2010,08,13,08,04,14.80
2010,08,13,08,05,14.80
2010,08,13,08,06,14.90
2010,08,13,08,07,14.90
2010,08,13,08,08,15.00
2010,08,13,08,09,15.00
2010,08,13,08,10,15.00
2010,08,13,08,11,15.00
2010,08,13,08,12,15.00
2010,08,13,08,13,15.00
2010,08,13,08,14,15.00
2010,08,13,08,15,15.00
2010,08,13,08,16,15.00
2010,08,13,08,17,15.10
2010,08,13,08,18,15.10
2010,08,13,08,19,15.20
2010,08,13,08,20,15.30
2010,08,13,08,21,15.30
2010,08,13,08,22,15.30
2010,08,13,08,23,15.40
2010,08,13,08,24,15.40
2010,08,13,08,25,15.50
2010,08,13,08,26,15.50
2010,08,13,08,27,15.60
2010,08,13,08,28,15.60
2010,08,13,08,29,15.70
2010,08,13,08,30,15.70
2010,08,13,08,31,15.80
2010,08,13,08,32,15.80
2010,08,13,08,33,15.90
2010,08,13,08,34,15.90
2010,08,13,08,35,16.00
2010,08,13,08,36,16.00
2010,08,13,08,37,16.10
2010,08,13,08,38,16.20
2010,08,13,08,39,16.30
2010,08,13,08,40,16.30
2010,08,13,08,41,16.40
2010,08,13,08,42,16.50
2010,08,13,08,43,16.50
2010,08,13,08,44,16.60
2010,08,13,08,45,16.70
2010,08,13,08,46,16.70
2010,08,13,08,47,16.80
2010,08,13,08,48,16.80
2010,08,13,08,49,16.90
2010,08,13,08,50,17.00
2010,08,13,08,51,17.00
2010,08,13,08,52,17.10
2010,08,13,08,53,17.20
2010,08,13,08,54,17.30
2010,08,13,08,55,17.30
2010,08,13,08,56,17.40
2010,08,13,08,57,17.50
2010,08,13,08,58,17.50
2010,08,13,08,59,17.60
2010,08,13,09,00,17.60
2010,08,13,09,01,17.70
2010,08,13,09,02,17.70
2010,08,13,09,03,17.80
2010,08,13,09,04,17.80
2010,08,13,09,05,17.90
2010,08,13,09,06,17.90
2010,08,13,09,07,18.00
2010,08,13,09,08,18.00
2010,08,13,09,09,18.10
2010,08,13,09,10,18.10
2010,08,13,09,11,18.20
2010,08,13,09,12,18.20
2010,08,13,09,13,18.30
2010,08,13,09,14,18.30
2010,08,13,09,15,18.40
2010,08,13,09,16,18.40
2010,08,13,09,17,18.50
2010,08,13,09,18,18.50
2010,08,13,09,19,18.60
2010,08,13,09,20,18.60
2010,08,13,09,21,18.60
2010,08,13,09,22,18.60
2010,08,13,09,23,18.70
2010,08,13,09,24,18.70
2010,08,13,09,25,18.80
2010,08,13,09,26,18.80
2010,08,13,09,27,18.90
2010,08,13,09,28,18.90
2010,08,13,09,29,19.00
2010,08,13,09,30,19.00
2010,08,13,09,31,19.10
2010,08,13,09,32,19.10
2010,08,13,09,33,19.10
2010,08,13,09,34,19.20
2010,08,13,09,35,19.20
2010,08,13,09,36,19.30
2010,08,13,09,37,19.40
2010,08,13,09,38,19.40
2010,08,13,09,39,19.60
2010,08,13,09,40,19.70
2010,08,13,09,41,19.80
2010,08,13,09,42,19.80
2010,08,13,09,43,19.90
2010,08,13,09,44,20.00
2010,08,13,09,45,20.10
2010,08,13,09,46,20.10
2010,08,13,09,47,20.20
2010,08,13,09,48,20.30
2010,08,13,09,49,20.40
2010,08,13,09,50,20.50
2010,08,13,09,51,20.60
2010,08,13,09,52,20.60
2010,08,13,09,53,20.70
2010,08,13,09,54,20.80
2010,08,13,09,55,20.80
2010,08,13,09,56,20.80
2010,08,13,09,57,20.90
2010,08,13,09,58,20.90
2010,08,13,09,59,21.00
2010,08,13,10,00,21.10
2010,08,13,10,01,21.10
2010,08,13,10,02,21.20
2010,08,13,10,03,21.20
2010,08,13,10,04,21.30
2010,08,13,10,05,21.30
2010,08,13,10,06,21.30
2010,08,13,10,07,21.40
2010,08,13,10,08,21.40
2010,08,13,10,09,21.40
2010,08,13,10,10,21.50
2010,08,13,10,11,21.60
2010,08,13,10,12,21.60
2010,08,13,10,13,21.60
2010,08,13,10,14,21.60
2010,08,13,10,15,21.70
2010,08,13,10,16,21.70
2010,08,13,10,17,21.80
2010,08,13,10,18,21.80
2010,08,13,10,19,21.80
2010,08,13,10,20,21.80
2010,08,13,10,21,21.80
2010,08,13,10,22,21.90
2010,08,13,10,23,21.90
2010,08,13,10,24,22.00
2010,08,13,10,25,22.10
2010,08,13,10,26,22.10
2010,08,13,10,27,22.20
2010,08,13,10,28,22.30
2010,08,13,10,29,22.30
2010,08,13,10,30,22.30
2010,08,13,10,31,22.30
2010,08,13,10,32,22.40
2010,08,13,10,33,22.40
2010,08,13,10,34,22.40
2010,08,13,10,35,22.50
2010,08,13,10,36,22.60
2010,08,13,10,37,22.70
2010,08,13,10,38,22.80
2010,08,13,10,39,22.90
2010,08,13,10,40,23.00
2010,08,13,10,41,23.10
2010,08,13,10,42,23.20
2010,08,13,10,43,23.30
2010,08,13,10,44,23.30
2010,08,13,10,45,23.40
2010,08,13,10,46,23.40
2010,08,13,10,47,23.40
2010,08,13,10,48,23.50
2010,08,13,10,49,23.50
2010,08,13,10,50,23.50
2010,08,13,10,51,23.60
2010,08,13,10,52,23.60
2010,08,13,10,53,23.60
2010,08,13,10,54,23.70
2010,08,13,10,55,23.70
2010,08,13,10,56,23.70
2010,08,13,10,57,23.80
2010,08,13,10,58,23.80
2010,08,13,10,59,23.90
2010,08,13,11,00,24.00
2010,08,13,11,01,24.00
2010,08,13,11,02,24.10
2010,08,13,11,03,24.10
2010,08,13,11,04,24.10
2010,08,13,11,05,24.10
2010,08,13,11,06,24.10
2010,08,13,11,07,24.20
2010,08,13,11,08,24.20
2010,08,13,11,09,24.20
2010,08,13,11,10,24.30
2010,08,13,11,11,24.30
2010,08,13,11,12,24.40
2010,08,13,11,13,24.40
2010,08,13,11,14,24.40
2010,08,13,11,15,24.40
2010,08,13,11,16,24.50
2010,08,13,11,17,24.50
2010,08,13,11,18,24.50
2010,08,13,11,19,24.60
2010,08,13,11,20,24.60
2010,08,13,11,21,24.60
2010,08,13,11,22,24.60
2010,08,13,11,23,24.60
2010,08,13,11,24,24.70
2010,08,13,11,25,24.70
2010,08,13,11,26,24.80
2010,08,13,11,27,24.80
2010,08,13,11,28,24.80
2010,08,13,11,29,24.90
2010,08,13,11,30,24.90
2010,08,13,11,31,24.90
2010,08,13,11,32,24.90
2010,08,13,11,33,24.80
2010,08,13,11,34,24.80
2010,08,13,11,35,24.90
2010,08,13,11,36,24.90
2010,08,13,11,37,24.90
2010,08,13,11,38,25.00
2010,08,13,11,39,25.10
2010,08,13,11,40,25.10
2010,08,13,11,41,25.20
2010,08,13,11,42,25.20
2010,08,13,11,43,25.20
2010,08,13,11,44,25.20
2010,08,13,11,45,25.20
2010,08,13,11,46,25.20
2010,08,13,11,47,25.20
2010,08,13,11,48,25.30
2010,08,13,11,49,25.40
2010,08,13,11,50,25.50
2010,08,13,11,51,25.50
2010,08,13,11,52,25.60
2010,08,13,11,53,25.60
2010,08,13,11,54,25.70
2010,08,13,11,55,25.70
2010,08,13,11,56,25.80
2010,08,13,11,57,25.90
2010,08,13,11,58,25.90
2010,08,13,11,59,26.00
2010,08,13,12,00,26.10
2010,08,13,12,01,26.20
2010,08,13,12,02,26.30
2010,08,13,12,03,26.30
2010,08,13,12,04,26.40
2010,08,13,12,05,26.50
2010,08,13,12,06,26.60
2010,08,13,12,07,26.70
2010,08,13,12,08,26.80
2010,08,13,12,09,26.90
2010,08,13,12,10,27.10
2010,08,13,12,11,27.20
2010,08,13,12,12,27.30
2010,08,13,12,13,27.50
2010,08,13,12,14,27.60
2010,08,13,12,15,27.70
2010,08,13,12,16,27.80
2010,08,13,12,17,27.90
2010,08,13,12,18,28.00
2010,08,13,12,19,28.10
2010,08,13,12,20,28.20
2010,08,13,12,21,28.20
2010,08,13,12,22,28.10
2010,08,13,12,23,28.10
2010,08,13,12,24,28.10
2010,08,13,12,25,28.10
2010,08,13,12,26,28.10
2010,08,13,12,27,28.10
2010,08,13,12,28,28.20
2010,08,13,12,29,28.10
2010,08,13,12,30,28.10
2010,08,13,12,31,28.20
2010,08,13,12,32,28.20
2010,08,13,12,33,28.20
2010,08,13,12,34,28.20
2010,08,13,12,35,28.20
2010,08,13,12,36,28.10
2010,08,13,12,37,28.10
2010,08,13,12,38,28.10
2010,08,13,12,39,28.00
2010,08,13,12,40,27.90
2010,08,13,12,41,27.80
2010,08,13,12,42,27.80
2010,08,13,12,43,27.80
2010,08,13,12,44,27.90
2010,08,13,12,45,28.00
2010,08,13,12,46,28.00
2010,08,13,12,47,28.00
2010,08,13,12,48,28.10
2010,08,13,12,49,28.10
2010,08,13,12,50,28.20
2010,08,13,12,51,28.20
2010,08,13,12,52,28.30
2010,08,13,12,53,28.40
2010,08,13,12,54,28.50
2010,08,13,12,55,28.60
2010,08,13,12,56,28.70
2010,08,13,12,57,28.80
2010,08,13,12,58,28.80
2010,08,13,12,59,28.90
2010,08,13,13,00,28.90
2010,08,13,13,01,28.90
2010,08,13,13,02,28.90
2010,08,13,13,03,28.90
2010,08,13,13,04,28.90
2010,08,13,13,05,28.90
2010,08,13,13,06,29.00
2010,08,13,13,07,29.00
2010,08,13,13,08,29.10
2010,08,13,13,09,29.10
2010,08,13,13,10,29.20
2010,08,13,13,11,29.20
2010,08,13,13,12,29.30
2010,08,13,13,13,29.40
2010,08,13,13,14,29.40
2010,08,13,13,15,29.50
2010,08,13,13,16,29.60
2010,08,13,13,17,29.60
2010,08,13,13,18,29.70
2010,08,13,13,19,29.80
2010,08,13,13,20,29.80
2010,08,13,13,21,29.90
2010,08,13,13,22,29.90
2010,08,13,13,23,29.80
2010,08,13,13,24,29.80
2010,08,13,13,25,29.70
2010,08,13,13,26,29.60
2010,08,13,13,27,29.50
2010,08,13,13,28,29.50
2010,08,13,13,29,29.50
2010,08,13,13,30,29.50
2010,08,13,13,31,29.50
2010,08,13,13,32,29.50
2010,08,13,13,33,29.50
2010,08,13,13,34,29.40
2010,08,13,13,35,29.40
2010,08,13,13,36,29.40
2010,08,13,13,37,29.40
2010,08,13,13,38,29.40
2010,08,13,13,39,29.50
2010,08,13,13,40,29.60
2010,08,13,13,41,29.60
2010,08,13,13,42,29.70
2010,08,13,13,43,29.70
2010,08,13,13,44,29.70
2010,08,13,13,45,29.70
2010,08,13,13,46,29.70
2010,08,13,13,47,29.60
2010,08,13,13,48,29.60
2010,08,13,13,49,29.60
2010,08,13,13,50,29.60
2010,08,13,13,51,29.70
2010,08,13,13,52,29.70
2010,08,13,13,53,29.70
2010,08,13,13,54,29.80
2010,08,13,13,55,29.80
2010,08,13,13,56,29.90
2010,08,13,13,57,30.00
2010,08,13,13,58,30.10
2010,08,13,13,59,30.20
2010,08,13,14,00,30.30
2010,08,13,14,01,30.40
2010,08,13,14,02,30.50
2010,08,13,14,03,30.50
2010,08,13,14,04,30.60
2010,08,13,14,05,30.50
2010,08,13,14,06,30.60
2010,08,13,14,07,30.60
2010,08,13,14,08,30.60
2010,08,13,14,09,30.60
2010,08,13,14,10,30.70
2010,08,13,14,11,30.80
2010,08,13,14,12,30.80
2010,08,13,14,13,30.90
2010,08,13,14,14,30.90
2010,08,13,14,15,31.00
2010,08,13,14,16,31.10
2010,08,13,14,17,31.10
2010,08,13,14,18,31.20
2010,08,13,14,19,31.20
2010,08,13,14,20,31.30
2010,08,13,14,21,31.30
2010,08,13,14,22,31.30
2010,08,13,14,23,31.30
2010,08,13,14,24,31.40
2010,08,13,14,25,31.40
2010,08,13,14,26,31.50
2010,08,13,14,27,31.50
2010,08,13,14,28,31.60
2010,08,13,14,29,31.70
2010,08,13,14,30,31.80
2010,08,13,14,31,31.90
2010,08,13,14,32,32.00
2010,08,13,14,33,32.00
2010,08,13,14,34,32.10
2010,08,13,14,35,32.10
2010,08,13,14,36,32.10
2010,08,13,14,37,32.00
2010,08,13,14,38,32.00
2010,08,13,14,39,31.90
2010,08,13,14,40,31.80
2010,08,13,14,41,31.80
2010,08,13,14,42,31.80
2010,08,13,14,43,31.80
2010,08,13,14,44,31.80
2010,08,13,14,45,31.70
2010,08,13,14,46,31.70
2010,08,13,14,47,31.50
2010,08,13,14,48,31.40
2010,08,13,14,49,31.20
2010,08,13,14,50,31.10
2010,08,13,14,51,31.10
2010,08,13,14,52,31.00
2010,08,13,14,53,30.90
2010,08,13,14,54,30.90
2010,08,13,14,55,30.90
2010,08,13,14,56,30.90
2010,08,13,14,57,31.00
2010,08,13,14,58,31.10
2010,08,13,14,59,31.10
2010,08,13,15,00,31.20
2010,08,13,15,01,31.30
2010,08,13,15,02,31.40
2010,08,13,15,03,31.40
2010,08,13,15,04,31.50
2010,08,13,15,05,31.50
2010,08,13,15,06,31.60
2010,08,13,15,07,31.60
2010,08,13,15,08,31.60
2010,08,13,15,09,31.60
2010,08,13,15,10,31.70
2010,08,13,15,11,31.80
2010,08,13,15,12,31.80
2010,08,13,15,13,31.90
2010,08,13,15,14,31.90
2010,08,13,15,15,32.00
2010,08,13,15,16,32.10
2010,08,13,15,17,32.10
2010,08,13,15,18,32.10
2010,08,13,15,19,32.20
2010,08,13,15,20,32.20
2010,08,13,15,21,32.30
2010,08,13,15,22,32.30
2010,08,13,15,23,32.30
2010,08,13,15,24,32.30
2010,08,13,15,25,32.30
2010,08,13,15,26,32.40
2010,08,13,15,27,32.30
2010,08,13,15,28,32.30
2010,08,13,15,29,32.30
2010,08,13,15,30,32.30
2010,08,13,15,31,32.30
2010,08,13,15,32,32.40
2010,08,13,15,33,32.40
2010,08,13,15,34,32.50
2010,08,13,15,35,32.50
2010,08,13,15,36,32.60
2010,08,13,15,37,32.60
2010,08,13,15,38,32.70
2010,08,13,15,39,32.70
2010,08,13,15,40,32.80
2010,08,13,15,41,32.80
2010,08,13,15,42,32.80
2010,08,13,15,43,32.80
2010,08,13,15,44,32.80
2010,08,13,15,45,32.60
2010,08,13,15,46,32.30
2010,08,13,15,47,32.20
2010,08,13,15,48,32.10
2010,08,13,15,49,32.00
2010,08,13,15,50,31.90
2010,08,13,15,51,31.80
2010,08,13,15,52,31.80
2010,08,13,15,53,31.80
2010,08,13,15,54,31.70
2010,08,13,15,55,31.70
2010,08,13,15,56,31.70
2010,08,13,15,57,31.70
2010,08,13,15,58,31.70
2010,08,13,15,59,31.60
2010,08,13,16,00,31.70
2010,08,13,16,01,31.70
2010,08,13,16,02,31.70
2010,08,13,16,03,31.80
2010,08,13,16,04,31.80
2010,08,13,16,05,31.80
2010,08,13,16,06,31.90
2010,08,13,16,07,31.90
2010,08,13,16,08,31.90
2010,08,13,16,09,31.90
2010,08,13,16,10,31.80
2010,08,13,16,11,31.80
2010,08,13,16,12,31.80
2010,08,13,16,13,31.70
2010,08,13,16,14,31.70
2010,08,13,16,15,31.70
2010,08,13,16,16,31.70
2010,08,13,16,17,31.70
2010,08,13,16,18,31.70
2010,08,13,16,19,31.70
2010,08,13,16,20,31.60
2010,08,13,16,21,31.60
2010,08,13,16,22,31.50
2010,08,13,16,23,31.60
2010,08,13,16,24,31.60
2010,08,13,16,25,31.60
2010,08,13,16,26,31.70
2010,08,13,16,27,31.70
2010,08,13,16,28,31.70
2010,08,13,16,29,31.70
2010,08,13,16,30,31.80
2010,08,13,16,31,31.80
2010,08,13,16,32,31.90
2010,08,13,16,33,31.90
2010,08,13,16,34,32.00
2010,08,13,16,35,32.00
2010,08,13,16,36,31.90
2010,08,13,16,37,31.90
2010,08,13,16,38,31.80
2010,08,13,16,39,31.60
2010,08,13,16,40,31.50
2010,08,13,16,41,31.40
2010,08,13,16,42,31.30
2010,08,13,16,43,31.30
2010,08,13,16,44,31.30
2010,08,13,16,45,31.30
2010,08,13,16,46,31.30
2010,08,13,16,47,31.30
2010,08,13,16,48,31.30
2010,08,13,16,49,31.30
2010,08,13,16,50,31.20
2010,08,13,16,51,31.30
2010,08,13,16,52,31.30
2010,08,13,16,53,31.30
2010,08,13,16,54,31.30
2010,08,13,16,55,31.40
2010,08,13,16,56,31.40
2010,08,13,16,57,31.40
2010,08,13,16,58,31.40
2010,08,13,16,59,31.40
2010,08,13,17,00,31.40
2010,08,13,17,01,31.50
2010,08,13,17,02,31.50
2010,08,13,17,03,31.50
2010,08,13,17,04,31.50
2010,08,13,17,05,31.50
2010,08,13,17,06,31.50
2010,08,13,17,07,31.40
2010,08,13,17,08,31.40
2010,08,13,17,09,31.30
2010,08,13,17,10,31.30
2010,08,13,17,11,31.30
2010,08,13,17,12,31.30
2010,08,13,17,13,31.30
2010,08,13,17,14,31.40
2010,08,13,17,15,31.40
2010,08,13,17,16,31.50
2010,08,13,17,17,31.50
2010,08,13,17,18,31.60
2010,08,13,17,19,31.60